Crosby, ND

10:33 AM CST on December 06, 2019 (GMT -0600)
Crosby

Weather History for KD50 - August, 2019

Change the Weather History Date:

Saturday, August 3, 2019

  Actual Average (WUND) Record (WUND)
Temperature  
Mean Temperature 80 °F -  
Max Temperature 93 °F - - (-1)
Min Temperature 66 °F - - (-1)
Cooling Degree Days 14    
Growing Degree Days 30 (Base 50)    
Moisture  
Dew Point 63 °F    
Average Humidity 63    
Maximum Humidity 100    
Minimum Humidity 26    
Precipitation  
Precipitation 0.00 in - - ()
Sea Level Pressure  
Sea Level Pressure 29.97 in    
Wind  
Wind Speed 13 mph (SSW)    
Max Wind Speed 18 mph    
Max Gust Speed 24 mph    
Visibility 10 miles    
Events Thunderstorm    
Averages and records for this station are not official NWS values.
T = Trace of Precipitation, MM = Missing Value Source: NWS Daily Summary

Daily Weather History Graph

Daily Weather History Graph

Search for Another Location

Airport or City:

Astronomy

Aug. 03, 2019 Rise Set
Actual Time 6:28 AM CDT 9:29 PM CDT
Civil Twilight 5:51 AM CDT 10:06 PM CDT
Nautical Twilight 5:03 AM CDT 10:53 PM CDT
Astronomical Twilight 4:04 AM CDT 11:52 PM CDT
Moon 9:36 AM CDT (8/3) 11:20 PM CDT (8/3)
Length of Visible Light 16h 14m
Length of Day
15h 00m
Waxing Crescent, 10% of the Moon is Illuminated
Aug 3
Waxing Crescent
Aug 7
First Quarter
Aug 15
Full
Aug 23
Last Quarter
Aug 30
New

Hourly Weather History & Observations

Time (CDT) Temp. Heat Index Dew Point Humidity Pressure Visibility Wind Dir Wind Speed Gust Speed Precip Events Conditions
12:15 AM 73.4 °F - 62.6 °F 69% 30.03 in 10.0 mi South 15.0 mph - N/A   Clear
12:35 AM 73.4 °F - 62.6 °F 69% 30.02 in 10.0 mi SSE 13.8 mph - N/A   Clear
12:55 AM 73.4 °F - 62.6 °F 69% 30.02 in 10.0 mi South 15.0 mph - N/A   Clear
1:15 AM 73.4 °F - 62.6 °F 69% 30.03 in 10.0 mi SSE 13.8 mph 19.6 mph N/A   Clear
1:35 AM 71.6 °F - 62.6 °F 73% 30.03 in 10.0 mi South 16.1 mph - N/A   Clear
1:55 AM 71.6 °F - 62.6 °F 73% 30.03 in 10.0 mi South 12.7 mph 18.4 mph N/A   Clear
2:15 AM 71.6 °F - 62.6 °F 73% 30.03 in 10.0 mi South 11.5 mph - N/A   Clear
2:35 AM 71.6 °F - 64.4 °F 78% 30.02 in 10.0 mi South 12.7 mph 18.4 mph N/A   Clear
2:55 AM 69.8 °F - 64.4 °F 83% 30.02 in 10.0 mi South 11.5 mph 18.4 mph N/A   Clear
3:15 AM 69.8 °F - 64.4 °F 83% 30.02 in 10.0 mi South 12.7 mph - N/A   Clear
3:55 AM 69.8 °F - 64.4 °F 83% 30.02 in 10.0 mi South 13.8 mph - N/A   Clear
4:15 AM 69.8 °F - 64.4 °F 83% 30.02 in 10.0 mi South 11.5 mph 17.3 mph N/A   Clear
4:35 AM 68.0 °F - 66.2 °F 94% 30.02 in 10.0 mi South 10.4 mph - N/A   Clear
4:55 AM 68.0 °F - 66.2 °F 94% 30.01 in 10.0 mi South 10.4 mph - N/A   Clear
5:15 AM 68.0 °F - 66.2 °F 94% 30.02 in 10.0 mi South 11.5 mph - N/A   Clear
5:35 AM 66.2 °F - 66.2 °F 100% 30.01 in 10.0 mi South 11.5 mph - N/A   Clear
5:55 AM 66.2 °F - 66.2 °F 100% 30.01 in 10.0 mi South 11.5 mph - N/A   Clear
6:15 AM 66.2 °F - 66.2 °F 100% 30.01 in 10.0 mi South 11.5 mph - N/A   Clear
6:35 AM 66.2 °F - 66.2 °F 100% 30.02 in 10.0 mi South 13.8 mph - N/A   Clear
6:55 AM 66.2 °F - 66.2 °F 100% 30.03 in 10.0 mi SSW 10.4 mph 17.3 mph N/A   Clear
7:15 AM 66.2 °F - 66.2 °F 100% 30.03 in 9.0 mi South 12.7 mph - N/A   Clear
7:35 AM 66.2 °F - 66.2 °F 100% 30.03 in 9.0 mi South 12.7 mph - N/A   Clear
7:55 AM 68.0 °F - 66.2 °F 94% 30.02 in 10.0 mi South 13.8 mph - N/A   Clear
8:15 AM 69.8 °F - 66.2 °F 88% 30.01 in 10.0 mi South 13.8 mph - N/A   Clear
8:35 AM 71.6 °F - 66.2 °F 83% 30.00 in 10.0 mi South 15.0 mph 20.7 mph N/A   Clear
8:55 AM 73.4 °F - 66.2 °F 78% 30.01 in 10.0 mi South 15.0 mph - N/A   Clear
9:15 AM 75.2 °F - 68.0 °F 78% 30.01 in 9.0 mi South 13.8 mph 21.9 mph N/A   Clear
9:35 AM 77.0 °F - 66.2 °F 69% 30.00 in 10.0 mi South 16.1 mph - N/A   Clear
9:55 AM 78.8 °F - 66.2 °F 65% 30.00 in 10.0 mi South 16.1 mph - N/A   Clear
10:15 AM 78.8 °F - 64.4 °F 61% 29.99 in 10.0 mi South 15.0 mph - N/A   Clear
10:35 AM 80.6 °F 82.3 °F 64.4 °F 58% 29.97 in 10.0 mi South 13.8 mph - N/A   Clear
10:55 AM 82.4 °F 84.6 °F 66.2 °F 58% 29.97 in 10.0 mi SSE 16.1 mph - N/A   Clear
11:15 AM 84.2 °F 85.6 °F 64.4 °F 51% 29.96 in 10.0 mi South 16.1 mph - N/A   Clear
11:35 AM 86.0 °F 87.3 °F 64.4 °F 48% 29.96 in 9.0 mi South 15.0 mph 23.0 mph N/A   Clear
11:55 AM 87.8 °F 88.5 °F 62.6 °F 43% 29.95 in 10.0 mi South 18.4 mph - N/A   Clear
12:15 PM 87.8 °F 88.5 °F 62.6 °F 43% 29.95 in 10.0 mi South 16.1 mph 23.0 mph N/A   Partly Cloudy
12:35 PM 84.2 °F 85.0 °F 62.6 °F 48% 29.96 in 10.0 mi SSW 18.4 mph - N/A   Clear
12:55 PM 84.2 °F 85.6 °F 64.4 °F 51% 29.96 in 10.0 mi South 13.8 mph - N/A   Clear
1:15 PM 86.0 °F 86.6 °F 62.6 °F 45% 29.96 in 9.0 mi WSW 17.3 mph 23.0 mph N/A   Clear
1:35 PM 82.4 °F 83.9 °F 64.4 °F 54% 29.97 in 9.0 mi West 17.3 mph 24.2 mph N/A   Clear
1:55 PM 82.4 °F 83.9 °F 64.4 °F 54% 29.97 in 10.0 mi WSW 13.8 mph 19.6 mph N/A   Partly Cloudy
2:15 PM 82.4 °F 83.9 °F 64.4 °F 54% 29.96 in 10.0 mi SW 4.6 mph - N/A   Scattered Clouds
2:35 PM 82.4 °F 83.9 °F 64.4 °F 54% 29.96 in 10.0 mi South 8.1 mph - N/A   Scattered Clouds
2:55 PM 86.0 °F 85.4 °F 59.0 °F 40% 29.94 in 10.0 mi Variable 4.6 mph - N/A   Scattered Clouds
3:15 PM 86.0 °F 85.4 °F 59.0 °F 40% 29.94 in 10.0 mi South 8.1 mph - N/A   Scattered Clouds
3:35 PM 89.6 °F 89.5 °F 60.8 °F 38% 29.94 in 10.0 mi SSW 10.4 mph - N/A   Partly Cloudy
3:55 PM 89.6 °F 89.5 °F 60.8 °F 38% 29.93 in 10.0 mi South 9.2 mph - N/A   Clear
4:15 PM 89.6 °F 89.5 °F 60.8 °F 38% 29.92 in 10.0 mi South 11.5 mph - N/A   Clear
4:35 PM 89.6 °F 88.9 °F 59.0 °F 36% 29.91 in 10.0 mi SSW 10.4 mph 17.3 mph N/A   Clear
5:15 PM 91.4 °F 89.4 °F 55.4 °F 29% 29.90 in 10.0 mi SW 11.5 mph - N/A   Clear
5:35 PM 93.2 °F 90.8 °F 53.6 °F 26% 29.89 in 10.0 mi SSW 13.8 mph - N/A   Clear
5:55 PM 93.2 °F 90.8 °F 53.6 °F 26% 29.89 in 10.0 mi WSW 11.5 mph - N/A Thunderstorm Clear
6:15 PM 93.2 °F 91.3 °F 55.4 °F 28% 29.89 in 10.0 mi WSW 6.9 mph 15.0 mph N/A   Clear
6:35 PM 91.4 °F 89.1 °F 53.6 °F 28% 29.89 in 9.0 mi WSW 11.5 mph - N/A   Clear
6:55 PM 91.4 °F - 51.8 °F 26% 29.89 in 10.0 mi SW 6.9 mph - N/A   Clear
7:15 PM 91.4 °F 89.1 °F 53.6 °F 28% 29.89 in 10.0 mi SW 5.8 mph - N/A   Clear
7:35 PM 91.4 °F 89.1 °F 53.6 °F 28% 29.88 in 9.0 mi SSW 9.2 mph - N/A   Clear
7:55 PM 89.6 °F 87.7 °F 55.4 °F 31% 29.89 in 9.0 mi SSW 5.8 mph - N/A   Clear
8:15 PM 87.8 °F 86.5 °F 57.2 °F 35% 29.89 in 10.0 mi SSW 5.8 mph - N/A   Partly Cloudy
8:35 PM 84.2 °F 85.0 °F 62.6 °F 48% 29.89 in 10.0 mi South 9.2 mph - N/A   Partly Cloudy
8:55 PM 80.6 °F 82.3 °F 64.4 °F 58% 29.90 in 10.0 mi South 17.3 mph - N/A   Clear
9:15 PM 78.8 °F - 64.4 °F 61% 29.91 in 10.0 mi South 10.4 mph 16.1 mph N/A   Clear
9:35 PM 77.0 °F - 60.8 °F 57% 29.91 in 10.0 mi South 15.0 mph 23.0 mph N/A   Clear
9:55 PM 75.2 °F - 60.8 °F 61% 29.91 in 10.0 mi South 15.0 mph 23.0 mph N/A   Clear
10:15 PM 75.2 °F - 60.8 °F 61% 29.92 in 10.0 mi South 15.0 mph - N/A   Clear
10:35 PM 73.4 °F - 62.6 °F 69% 29.94 in 10.0 mi SSW 10.4 mph 16.1 mph N/A   Clear
10:55 PM 71.6 °F - 64.4 °F 78% 29.95 in 10.0 mi SW 10.4 mph - N/A   Clear
11:15 PM 71.6 °F - 64.4 °F 78% 29.96 in 10.0 mi SW 9.2 mph - N/A   Clear
11:35 PM 69.8 °F - 66.2 °F 88% 29.96 in 10.0 mi SW 6.9 mph - N/A   Clear
11:55 PM 68.0 °F - 66.2 °F 94% 29.97 in 10.0 mi West 5.8 mph - N/A   Clear